Biloxi, MS

3:23 AM CDT on May 22, 2018 (GMT -0500)
Keesler Air Force Base

Weather History for KBIX - June, 2012

Change the Weather History Date:

Wednesday, June 13, 2012

  Actual Average Record
Temperature  
Mean Temperature 79 °F -  
Max Temperature 87 °F 88 °F 96 °F (1952)
Min Temperature 71 °F 72 °F 62 °F (1955)
Cooling Degree Days 14    
Growing Degree Days 29 (Base 50)    
Moisture  
Dew Point 70 °F    
Average Humidity 74    
Maximum Humidity 95    
Minimum Humidity 57    
Precipitation  
Precipitation 0.02 in - - ()
Sea Level Pressure  
Sea Level Pressure 29.98 in    
Wind  
Wind Speed 3 mph (NNE)    
Max Wind Speed 16 mph    
Max Gust Speed -    
Visibility 10 miles    
Events Rain    
Averages and records for this station are not official NWS values.
T = Trace of Precipitation, MM = Missing Value Source: NWS Daily Summary

Daily Weather History Graph

Daily Weather History Graph

Search for Another Location

Airport or City:

Astronomy

Jun. 13, 2012 Rise Set
Actual Time 5:53 AM CDT 7:58 PM CDT
Civil Twilight 5:25 AM CDT 8:26 PM CDT
Nautical Twilight 4:51 AM CDT 8:59 PM CDT
Astronomical Twilight 4:16 AM CDT 9:35 PM CDT
Moon 1:49 AM CDT (6/13) 2:59 PM CDT (6/13)
Length of Visible Light 15h 00m
Length of Day
14h 05m
Waning Crescent, 29% of the Moon is Illuminated
Jun 13
Waning Crescent
Jun 19
New
Jun 26
First Quarter
Jul 3
Full
Jul 10
Last Quarter

Hourly Weather History & Observations

Time (CDT) Temp. Heat Index Dew Point Humidity Pressure Visibility Wind Dir Wind Speed Gust Speed Precip Events Conditions
12:55 AM 75.9 °F - 69.3 °F 80% 30.01 in 10.0 mi Calm Calm - N/A   Clear
1:55 AM 74.3 °F - 69.6 °F 85% 29.99 in 10.0 mi Calm Calm - N/A   Clear
2:55 AM 73.2 °F - 69.6 °F 88% 29.99 in 10.0 mi Calm Calm - N/A   Clear
3:55 AM 71.8 °F - 69.8 °F 93% 29.98 in 10.0 mi Variable 3.5 mph - N/A   Clear
4:55 AM 71.1 °F - 69.6 °F 95% 29.98 in 10.0 mi Variable 3.5 mph - N/A   Clear
5:55 AM 71.1 °F - 69.6 °F 95% 29.98 in 10.0 mi NNW 5.8 mph - N/A   Mostly Cloudy
6:55 AM 71.6 °F - 69.8 °F 94% 29.99 in 10.0 mi Variable 4.6 mph - N/A   Mostly Cloudy
7:55 AM 72.3 °F - 69.3 °F 90% 30.01 in 10.0 mi Variable 3.5 mph - N/A   Overcast
8:55 AM 75.4 °F - 69.3 °F 81% 30.01 in 10.0 mi Calm Calm - N/A   Mostly Cloudy
8:57 AM 75.2 °F - 69.8 °F 83% 30.01 in 10.0 mi Calm Calm - N/A   Mostly Cloudy
9:24 AM 77.0 °F - 69.8 °F 78% 30.02 in 10.0 mi Calm Calm - N/A   Mostly Cloudy
9:55 AM 79.7 °F - 69.8 °F 72% 30.01 in 10.0 mi Calm Calm - N/A   Mostly Cloudy
9:58 AM 78.8 °F - 69.8 °F 74% 30.01 in 10.0 mi North 4.6 mph - N/A   Scattered Clouds
9:59 AM 78.8 °F - 69.8 °F 74% 30.01 in 10.0 mi North 3.5 mph - N/A   Mostly Cloudy
10:00 AM 78.8 °F - 69.8 °F 74% 30.01 in 10.0 mi Variable 3.5 mph - N/A   Scattered Clouds
10:02 AM 78.8 °F - 69.8 °F 74% 30.01 in 10.0 mi Variable 3.5 mph - N/A   Mostly Cloudy
10:16 AM 80.6 °F 83.9 °F 69.8 °F 70% 30.01 in 10.0 mi Variable 3.5 mph - N/A   Mostly Cloudy
10:29 AM 82.4 °F 86.3 °F 69.8 °F 66% 30.01 in 10.0 mi Variable 5.8 mph - N/A   Mostly Cloudy
10:41 AM 82.4 °F 86.3 °F 69.8 °F 66% 30.01 in 10.0 mi Calm Calm - N/A   Mostly Cloudy
10:45 AM 82.4 °F 86.3 °F 69.8 °F 66% 30.01 in 10.0 mi Variable 4.6 mph - N/A   Mostly Cloudy
10:55 AM 81.1 °F 84.4 °F 69.1 °F 67% 30.01 in 10.0 mi Variable 6.9 mph - N/A   Mostly Cloudy
10:56 AM 80.6 °F 83.9 °F 69.8 °F 70% 30.01 in 10.0 mi NNW 6.9 mph - N/A   Mostly Cloudy
11:55 AM 81.3 °F 84.6 °F 69.3 °F 67% 30.00 in 10.0 mi Variable 5.8 mph - N/A   Mostly Cloudy
12:55 PM 84.0 °F 88.7 °F 70.5 °F 64% 29.98 in 10.0 mi Variable 4.6 mph - N/A   Scattered Clouds
1:55 PM 86.0 °F 90.4 °F 69.8 °F 58% 29.96 in 10.0 mi Variable 5.8 mph - N/A   Partly Cloudy
2:55 PM 85.8 °F 91.5 °F 71.6 °F 62% 29.95 in 10.0 mi Variable 4.6 mph - N/A   Mostly Cloudy
3:55 PM 87.1 °F 92.0 °F 70.3 °F 57% 29.93 in 10.0 mi Variable 3.5 mph - N/A   Clear
4:55 PM 86.5 °F 91.4 °F 70.0 °F 58% 29.93 in 10.0 mi Variable 5.8 mph - N/A   Scattered Clouds
5:55 PM 86.7 °F 91.7 °F 70.5 °F 58% 29.92 in 10.0 mi Variable 4.6 mph - N/A   Mostly Cloudy
6:29 PM 87.8 °F 93.8 °F 71.6 °F 58% 29.92 in 6.0 mi Calm Calm - N/A Rain Rain
6:40 PM 84.2 °F 89.6 °F 71.6 °F 66% 29.92 in 10.0 mi Variable 3.5 mph - N/A   Mostly Cloudy
6:55 PM 84.6 °F 90.0 °F 71.8 °F 65% 29.93 in 7.0 mi Variable 6.9 mph - 0.01 in   Overcast
7:51 PM 78.8 °F - 66.2 °F 65% 29.95 in 10.0 mi ENE 16.1 mph - N/A Rain Light Rain
7:55 PM 77.4 °F - 66.7 °F 70% 29.95 in 10.0 mi NE 11.5 mph - 0.00 in Rain Light Rain
8:22 PM 75.2 °F - 68.0 °F 78% 29.94 in 10.0 mi East 8.1 mph - N/A   Overcast
8:55 PM 74.1 °F - 67.8 °F 81% 29.94 in 10.0 mi NE 3.5 mph - 0.01 in   Clear
9:55 PM 75.2 °F - 68.7 °F 80% 29.95 in 10.0 mi Calm Calm - N/A   Partly Cloudy
10:55 PM 75.4 °F - 69.4 °F 82% 29.96 in 10.0 mi Calm Calm - N/A   Clear
11:55 PM 76.5 °F - 72.7 °F 88% 29.96 in 10.0 mi Calm Calm - N/A   Mostly Cloudy